| time (UTC) | temp F | wind direction | speed MPH | gust MPH | rain 1hr in | rain 24hr in | rain mn in | humidity % | barometer mb |
| 20260507024705 | 76 | 156 | 3.0 | 5.0 | 0.00 | 0.00 | 0.00 | 87 | 1016.2 |
| 20260507024204 | 76 | 154 | 3.0 | 5.0 | 0.00 | 0.00 | 0.00 | 87 | 1016.2 |
| 20260507023703 | 76 | 156 | 2.0 | 3.0 | 0.00 | 0.00 | 0.00 | 87 | 1016.2 |
| 20260507023204 | 76 | 154 | 2.0 | 5.0 | 0.00 | 0.00 | 0.00 | 87 | 1016.2 |
| 20260507021705 | 76 | 120 | 3.0 | 5.0 | 0.00 | 0.00 | 0.00 | 86 | 1016.2 |
| 20260507020704 | 76 | 108 | 4.0 | 6.0 | 0.00 | 0.00 | 0.00 | 86 | 1016.2 |
| 20260507020204 | 77 | 123 | 3.0 | 5.0 | 0.00 | 0.00 | 0.00 | 85 | 1016.2 |
| 20260507014204 | 77 | 104 | 5.0 | 6.0 | 0.00 | 0.00 | 0.00 | 84 | 1016.2 |
| 20260507013704 | 77 | 113 | 4.0 | 6.0 | 0.00 | 0.00 | 0.00 | 82 | 1016.2 |
| 20260507013204 | 77 | 113 | 3.0 | 6.0 | 0.00 | 0.00 | 0.00 | 81 | 1016.2 |
| 20260507011704 | 77 | 122 | 3.0 | 5.0 | 0.00 | 0.00 | 0.00 | 79 | 1016.2 |
| 20260507010704 | 78 | 111 | 3.0 | 3.0 | 0.00 | 0.00 | 0.00 | 78 | 1016.2 |
| 20260507010204 | 78 | 116 | 2.0 | 3.0 | 0.00 | 0.00 | 0.00 | 78 | 1016.2 |
| 20260507004705 | 78 | 128 | 3.0 | 6.0 | 0.00 | 0.00 | 0.00 | 76 | 1016.2 |
| 20260507004204 | 78 | 128 | 2.0 | 6.0 | 0.00 | 0.00 | 0.00 | 76 | 1015.5 |
| 20260507003703 | 79 | 138 | 3.0 | 6.0 | 0.00 | 0.00 | 0.00 | 76 | 1015.2 |
| 20260507003204 | 79 | 119 | 3.0 | 6.0 | 0.00 | 0.00 | 0.00 | 75 | 1015.2 |
| 20260507001704 | 79 | 115 | 3.0 | 6.0 | 0.00 | 0.00 | 0.00 | 73 | 1016.2 |
| 20260507001204 | 80 | 123 | 3.0 | 6.0 | 0.00 | 0.00 | 0.00 | 72 | 1015.8 |
| 20260507000705 | 80 | 123 | 3.0 | 6.0 | 0.00 | 0.00 | 0.00 | 72 | 1015.2 |
| 20260507000212 | 80 | 121 | 5.0 | 8.0 | 0.00 | 0.00 | 0.00 | 72 | 1015.2 |
| 20260506234703 | 81 | 124 | 6.0 | 8.0 | 0.00 | 0.00 | 0.00 | 69 | 1015.2 |
| 20260506234204 | 81 | 113 | 6.0 | 9.0 | 0.00 | 0.00 | 0.00 | 69 | 1015.2 |
| 20260506233705 | 81 | 103 | 5.0 | 8.0 | 0.00 | 0.00 | 0.00 | 69 | 1015.2 |
| 20260506233203 | 82 | 108 | 5.0 | 10.0 | 0.00 | 0.00 | 0.00 | 68 | 1015.2 |
| 20260506231204 | 83 | 105 | 6.0 | 8.0 | 0.00 | 0.00 | 0.00 | 67 | 1015.2 |
| 20260506230704 | 83 | 115 | 3.0 | 9.0 | 0.00 | 0.00 | 0.00 | 67 | 1015.2 |
| 20260506230204 | 83 | 119 | 5.0 | 9.0 | 0.00 | 0.00 | 0.00 | 67 | 1015.2 |
| 20260506224205 | 84 | 128 | 5.0 | 9.0 | 0.00 | 0.00 | 0.00 | 66 | 1015.2 |
| 20260506223204 | 84 | 89 | 6.0 | 13.0 | 0.00 | 0.00 | 0.00 | 63 | 1015.2 |
| 20260506221705 | 85 | 81 | 6.0 | 9.0 | 0.00 | 0.00 | 0.00 | 62 | 1015.2 |
| 20260506221204 | 85 | 128 | 5.0 | 10.0 | 0.00 | 0.00 | 0.00 | 63 | 1015.2 |
| 20260506220205 | 85 | 115 | 6.0 | 12.0 | 0.00 | 0.00 | 0.00 | 60 | 1015.2 |
| 20260506214705 | 86 | 93 | 6.0 | 10.0 | 0.00 | 0.00 | 0.00 | 58 | 1015.2 |
| 20260506214204 | 86 | 102 | 7.0 | 10.0 | 0.00 | 0.00 | 0.00 | 59 | 1015.2 |
| 20260506213203 | 87 | 109 | 7.0 | 13.0 | 0.00 | 0.00 | 0.00 | 58 | 1015.2 |
| 20260506211705 | 87 | 102 | 7.0 | 10.0 | 0.00 | 0.00 | 0.00 | 58 | 1015.2 |
| 20260506211204 | 87 | 103 | 6.0 | 10.0 | 0.00 | 0.00 | 0.00 | 58 | 1015.2 |
| 20260506210703 | 88 | 82 | 7.0 | 9.0 | 0.00 | 0.00 | 0.00 | 59 | 1015.2 |
| 20260506204704 | 89 | 91 | 7.0 | 8.0 | 0.00 | 0.00 | 0.00 | 58 | 1015.2 |
| 20260506203204 | 89 | 108 | 7.0 | 12.0 | 0.00 | 0.00 | 0.00 | 56 | 1015.2 |
| 20260506201703 | 89 | 112 | 7.0 | 8.0 | 0.00 | 0.00 | 0.00 | 56 | 1015.2 |
| 20260506200705 | 89 | 101 | 6.0 | 9.0 | 0.00 | 0.00 | 0.00 | 56 | 1015.2 |
| 20260506200205 | 89 | 101 | 8.0 | 12.0 | 0.00 | 0.00 | 0.00 | 55 | 1015.2 |
| 20260506194704 | 90 | 88 | 7.0 | 9.0 | 0.00 | 0.00 | 0.00 | 52 | 1015.2 |
| 20260506194204 | 90 | 106 | 7.0 | 10.0 | 0.00 | 0.00 | 0.00 | 50 | 1015.2 |
| 20260506193705 | 90 | 106 | 7.0 | 13.0 | 0.00 | 0.00 | 0.00 | 53 | 1015.2 |
| 20260506193204 | 90 | 107 | 8.0 | 12.0 | 0.00 | 0.00 | 0.00 | 51 | 1015.2 |
| 20260506191704 | 91 | 111 | 6.0 | 9.0 | 0.00 | 0.00 | 0.00 | 51 | 1016.2 |
| 20260506190703 | 91 | 125 | 5.0 | 7.0 | 0.00 | 0.00 | 0.00 | 53 | 1016.2 |
| 20260506190204 | 91 | 124 | 7.0 | 10.0 | 0.00 | 0.00 | 0.00 | 54 | 1016.2 |
| 20260506184704 | 91 | 104 | 6.0 | 10.0 | 0.00 | 0.00 | 0.00 | 54 | 1016.2 |
| 20260506184203 | 91 | 113 | 5.0 | 10.0 | 0.00 | 0.00 | 0.00 | 55 | 1016.2 |
| 20260506183704 | 92 | 102 | 5.0 | 12.0 | 0.00 | 0.00 | 0.00 | 53 | 1016.2 |
| 20260506183204 | 91 | 128 | 6.0 | 12.0 | 0.00 | 0.00 | 0.00 | 52 | 1016.2 |
| 20260506181704 | 92 | 124 | 7.0 | 13.0 | 0.00 | 0.00 | 0.00 | 52 | 1016.2 |
| 20260506181204 | 92 | 110 | 6.0 | 9.0 | 0.00 | 0.00 | 0.00 | 53 | 1016.2 |
| 20260506180204 | 91 | 111 | 6.0 | 9.0 | 0.00 | 0.00 | 0.00 | 55 | 1016.2 |
| 20260506174704 | 92 | 115 | 7.0 | 9.0 | 0.00 | 0.00 | 0.00 | 55 | 1017.2 |
| 20260506174203 | 92 | 102 | 5.0 | 9.0 | 0.00 | 0.00 | 0.00 | 55 | 1017.2 |
| 20260506173703 | 92 | 97 | 5.0 | 10.0 | 0.00 | 0.00 | 0.00 | 53 | 1017.2 |
| 20260506171704 | 92 | 121 | 6.0 | 10.0 | 0.00 | 0.00 | 0.00 | 55 | 1016.2 |
| 20260506171205 | 91 | 143 | 6.0 | 8.0 | 0.00 | 0.00 | 0.00 | 56 | 1016.6 |
| 20260506170203 | 91 | 138 | 6.0 | 9.0 | 0.00 | 0.00 | 0.00 | 57 | 1017.2 |
| 20260506164704 | 91 | 124 | 5.0 | 9.0 | 0.00 | 0.00 | 0.00 | 57 | 1017.2 |
| 20260506164204 | 91 | 111 | 5.0 | 8.0 | 0.00 | 0.00 | 0.00 | 58 | 1017.2 |
| 20260506163704 | 91 | 93 | 6.0 | 9.0 | 0.00 | 0.00 | 0.00 | 58 | 1017.2 |
| 20260506163204 | 91 | 115 | 5.0 | 8.0 | 0.00 | 0.00 | 0.00 | 57 | 1017.2 |
| 20260506161204 | 90 | 93 | 5.0 | 8.0 | 0.00 | 0.00 | 0.00 | 57 | 1017.2 |
| 20260506160704 | 90 | 104 | 6.0 | 8.0 | 0.00 | 0.00 | 0.00 | 58 | 1017.2 |
| 20260506160204 | 90 | 114 | 7.0 | 9.0 | 0.00 | 0.00 | 0.00 | 58 | 1017.2 |
| 20260506154704 | 89 | 127 | 6.0 | 9.0 | 0.00 | 0.00 | 0.00 | 59 | 1017.2 |
| 20260506154204 | 88 | 118 | 5.0 | 8.0 | 0.00 | 0.00 | 0.00 | 62 | 1017.2 |
| 20260506153703 | 88 | 109 | 6.0 | 10.0 | 0.00 | 0.00 | 0.00 | 63 | 1017.2 |
| 20260506153205 | 89 | 114 | 6.0 | 9.0 | 0.00 | 0.00 | 0.00 | 65 | 1017.2 |
| 20260506151704 | 88 | 148 | 6.0 | 8.0 | 0.00 | 0.00 | 0.00 | 67 | 1017.2 |
| 20260506151205 | 88 | 120 | 6.0 | 8.0 | 0.00 | 0.00 | 0.00 | 66 | 1016.5 |
| 20260506150205 | 88 | 150 | 6.0 | 9.0 | 0.00 | 0.00 | 0.00 | 66 | 1016.2 |
| 20260506144704 | 87 | 106 | 5.0 | 8.0 | 0.00 | 0.00 | 0.00 | 69 | 1017.2 |
| 20260506144203 | 87 | 118 | 5.0 | 8.0 | 0.00 | 0.00 | 0.00 | 72 | 1017.2 |
| 20260506143705 | 87 | 102 | 5.0 | 7.0 | 0.00 | 0.00 | 0.00 | 72 | 1017.2 |
| 20260506143204 | 87 | 119 | 4.0 | 9.0 | 0.00 | 0.00 | 0.00 | 74 | 1017.2 |
| 20260506141703 | 85 | 116 | 5.0 | 8.0 | 0.00 | 0.00 | 0.00 | 77 | 1017.2 |
| 20260506140704 | 85 | 110 | 4.0 | 8.0 | 0.00 | 0.00 | 0.00 | 78 | 1017.2 |
| 20260506140204 | 84 | 105 | 5.0 | 8.0 | 0.00 | 0.00 | 0.00 | 82 | 1017.2 |
| 20260506134704 | 84 | 150 | 4.0 | 6.0 | 0.00 | 0.00 | 0.00 | 84 | 1017.2 |
| 20260506133704 | 83 | 144 | 3.0 | 6.0 | 0.00 | 0.00 | 0.00 | 85 | 1016.2 |
| 20260506133204 | 83 | 102 | 4.0 | 7.0 | 0.00 | 0.00 | 0.00 | 84 | 1016.2 |
| 20260506131704 | 84 | 105 | 3.0 | 7.0 | 0.00 | 0.00 | 0.00 | 79 | 1016.2 |
| 20260506131205 | 83 | 120 | 5.0 | 8.0 | 0.00 | 0.00 | 0.00 | 83 | 1016.2 |
| 20260506130704 | 81 | 121 | 4.0 | 6.0 | 0.00 | 0.00 | 0.00 | 87 | 1016.2 |
| 20260506124703 | 82 | 89 | 3.0 | 6.0 | 0.00 | 0.00 | 0.00 | 89 | 1016.2 |
| 20260506124203 | 81 | 116 | 3.0 | 6.0 | 0.00 | 0.00 | 0.00 | 98 | 1016.2 |
| 20260506123205 | 78 | 127 | 3.0 | 5.0 | 0.00 | 0.00 | 0.00 | 100 | 1016.2 |
| 20260506121704 | 76 | 148 | 0.0 | 0.0 | 0.00 | 0.00 | 0.00 | 100 | 1016.2 |
| 20260506121204 | 75 | 148 | 0.0 | 0.0 | 0.00 | 0.00 | 0.00 | 100 | 1016.2 |
| 20260506120204 | 74 | 148 | 0.0 | 0.0 | 0.00 | 0.00 | 0.00 | 100 | 1016.2 |
| 20260506114704 | 72 | 148 | 0.0 | 0.0 | 0.00 | 0.00 | 0.00 | 100 | 1016.2 |
| 20260506114203 | 72 | 148 | 0.0 | 0.0 | 0.00 | 0.00 | 0.00 | 100 | 1016.2 |
| 20260506113705 | 72 | 148 | 0.0 | 0.0 | 0.00 | 0.00 | 0.00 | 100 | 1016.2 |
| 20260506111705 | 71 | 148 | 0.0 | 0.0 | 0.00 | 0.00 | 0.00 | 100 | 1016.2 |
| 20260506111204 | 71 | 148 | 0.0 | 0.0 | 0.00 | 0.00 | 0.00 | 100 | 1016.2 |
| 20260506110703 | 71 | 149 | 0.0 | 0.0 | 0.00 | 0.00 | 0.00 | 100 | 1016.2 |
| 20260506110204 | 70 | 148 | 0.0 | 0.0 | 0.00 | 0.00 | 0.00 | 100 | 1016.2 |
| 20260506104704 | 69 | 148 | 0.0 | 0.0 | 0.00 | 0.00 | 0.00 | 100 | 1015.2 |
| 20260506104203 | 69 | 148 | 0.0 | 0.0 | 0.00 | 0.00 | 0.00 | 100 | 1015.2 |
| 20260506103704 | 69 | 148 | 0.0 | 0.0 | 0.00 | 0.00 | 0.00 | 100 | 1015.2 |
| 20260506103204 | 69 | 148 | 0.0 | 0.0 | 0.00 | 0.00 | 0.00 | 100 | 1015.2 |
| 20260506101704 | 69 | 148 | 0.0 | 0.0 | 0.00 | 0.00 | 0.00 | 100 | 1015.2 |
| 20260506101204 | 69 | 148 | 0.0 | 0.0 | 0.00 | 0.00 | 0.00 | 100 | 1015.2 |
| 20260506100705 | 69 | 148 | 0.0 | 0.0 | 0.00 | 0.00 | 0.00 | 100 | 1015.2 |
| 20260506094704 | 69 | 148 | 0.0 | 0.0 | 0.00 | 0.00 | 0.00 | 100 | 1015.2 |
| 20260506093704 | 69 | 148 | 0.0 | 0.0 | 0.00 | 0.00 | 0.00 | 100 | 1015.2 |
| 20260506093204 | 69 | 148 | 0.0 | 0.0 | 0.00 | 0.00 | 0.00 | 100 | 1015.2 |
| 20260506091704 | 69 | 148 | 0.0 | 0.0 | 0.00 | 0.00 | 0.00 | 100 | 1015.2 |
| 20260506091204 | 70 | 148 | 0.0 | 0.0 | 0.00 | 0.00 | 0.00 | 100 | 1015.2 |
| 20260506090703 | 70 | 148 | 0.0 | 0.0 | 0.00 | 0.00 | 0.00 | 100 | 1015.2 |
| 20260506084704 | 70 | 148 | 0.0 | 0.0 | 0.00 | 0.00 | 0.00 | 100 | 1015.2 |
| 20260506083705 | 70 | 148 | 0.0 | 0.0 | 0.00 | 0.00 | 0.00 | 100 | 1015.2 |
| 20260506083203 | 70 | 148 | 0.0 | 0.0 | 0.00 | 0.00 | 0.00 | 100 | 1015.2 |
| 20260506081703 | 71 | 148 | 0.0 | 0.0 | 0.00 | 0.00 | 0.00 | 100 | 1015.2 |
| 20260506081204 | 71 | 148 | 0.0 | 0.0 | 0.00 | 0.00 | 0.00 | 100 | 1015.2 |
| 20260506080204 | 71 | 148 | 0.0 | 0.0 | 0.00 | 0.00 | 0.00 | 100 | 1015.2 |
| 20260506071704 | 72 | 148 | 0.0 | 0.0 | 0.00 | 0.00 | 0.00 | 100 | 1015.2 |
| 20260506070703 | 72 | 148 | 0.0 | 0.0 | 0.00 | 0.00 | 0.00 | 100 | 1015.2 |
| 20260506070203 | 72 | 148 | 0.0 | 0.0 | 0.00 | 0.00 | 0.00 | 100 | 1015.2 |
| 20260506061704 | 73 | 140 | 0.0 | 3.0 | 0.00 | 0.00 | 0.00 | 100 | 1015.2 |
| 20260506061205 | 73 | 121 | 0.0 | 3.0 | 0.00 | 0.00 | 0.00 | 100 | 1015.2 |
| 20260506060206 | 74 | 115 | 0.0 | 2.0 | 0.00 | 0.00 | 0.00 | 100 | 1015.2 |
| 20260506051204 | 74 | 121 | 3.0 | 5.0 | 0.00 | 0.00 | 0.00 | 100 | 1015.5 |
| 20260506050704 | 74 | 119 | 3.0 | 6.0 | 0.00 | 0.00 | 0.00 | 99 | 1016.2 |
| 20260506050204 | 74 | 105 | 2.0 | 3.0 | 0.00 | 0.00 | 0.00 | 99 | 1016.2 |
| 20260506044704 | 75 | 110 | 3.0 | 3.0 | 0.00 | 0.00 | 0.00 | 98 | 1016.2 |
| 20260506044204 | 75 | 116 | 3.0 | 6.0 | 0.00 | 0.00 | 0.00 | 98 | 1016.2 |
| 20260506043703 | 75 | 101 | 3.0 | 5.0 | 0.00 | 0.00 | 0.00 | 98 | 1016.2 |
| 20260506043204 | 75 | 109 | 4.0 | 6.0 | 0.00 | 0.00 | 0.00 | 98 | 1016.2 |
| 20260506041704 | 75 | 95 | 3.0 | 6.0 | 0.00 | 0.00 | 0.00 | 97 | 1016.2 |
| 20260506040704 | 75 | 86 | 5.0 | 6.0 | 0.00 | 0.00 | 0.00 | 97 | 1016.2 |
| 20260506040203 | 75 | 104 | 3.0 | 6.0 | 0.00 | 0.00 | 0.00 | 97 | 1016.2 |
| 20260506034203 | 75 | 103 | 3.0 | 6.0 | 0.00 | 0.00 | 0.00 | 96 | 1016.2 |
| 20260506033704 | 75 | 97 | 4.0 | 6.0 | 0.00 | 0.00 | 0.00 | 97 | 1016.2 |
| 20260506033205 | 75 | 107 | 3.0 | 6.0 | 0.00 | 0.00 | 0.00 | 96 | 1016.2 |
| 20260506031704 | 75 | 108 | 3.0 | 5.0 | 0.00 | 0.00 | 0.00 | 96 | 1016.2 |
| 20260506031204 | 75 | 106 | 5.0 | 6.0 | 0.00 | 0.00 | 0.00 | 95 | 1016.2 |
| 20260506030205 | 75 | 104 | 4.0 | 6.0 | 0.00 | 0.00 | 0.00 | 94 | 1016.2 |